EYESAT A 1 22825U 93061C 25174.62349930 .00000069 00000-0 43670-4 0 9992 2 22825 98.7360 236.2488 0009494 74.6573 285.5658 14.30803650655998 CUTE-1 1 27844U 03031E 25174.45162469 .00000235 00000-0 12116-3 0 9992 2 27844 98.6753 182.5458 0010392 141.4344 218.7579 14.24005982140610 CUBESAT XI 4 1 27848U 03031J 25174.47681219 .00000189 00000-0 10259-3 0 9991 2 27848 98.6782 182.5658 0009938 157.6698 202.4915 14.23339282140349 CUBESAT XI 5 1 28895U 05043F 25173.37397887 .00001042 00000-0 17795-3 0 9993 2 28895 98.2512 317.8849 0013223 265.6817 94.2878 14.71050537 48820 CUTE-1.7+APD II 1 32785U 08021C 25174.57212233 .00002817 00000-0 20525-3 0 9995 2 32785 97.7858 145.8406 0010580 153.9961 206.1798 15.04545156931188 COMPASS 1 1 32787U 08021E 25174.45566981 .00036086 00000-0 73078-3 0 9992 2 32787 97.6423 165.4387 0003251 8.4849 351.6454 15.46333995934392 CANX-2 1 32790U 08021H 25174.89462035 .00001814 00000-0 14369-3 0 9998 2 32790 97.8204 144.7607 0012885 153.3029 206.8861 15.01807899931045 SEEDS 1 32791U 08021J 25174.47274166 .00007544 00000-0 36384-3 0 9996 2 32791 97.7272 154.8259 0005738 111.5844 248.6002 15.18986059932603 SWISSCUBE 1 35932U 09051B 25174.46148113 .00000707 00000-0 15306-3 0 9996 2 35932 98.4292 70.9561 0005624 245.6904 114.3709 14.61365809836783 BEESAT 1 35933U 09051C 25173.13999358 .00000614 00000-0 13595-3 0 9990 2 35933 98.4225 69.9418 0004028 267.6238 92.4501 14.60773894836603 ITUPSAT 1 1 35935U 09051E 25174.74397205 .00000539 00000-0 12357-3 0 9994 2 35935 98.4316 71.1019 0006272 271.9093 88.1388 14.59571613836460 TISAT 1 1 36799U 10035E 25174.51193080 .00008126 00000-0 41583-3 0 9990 2 36799 98.0584 89.4363 0004783 64.9055 295.2672 15.16910805813083 HORYU 2 1 38340U 12025D 25174.56405136 .00001757 00000-0 19914-3 0 9994 2 38340 98.1803 289.7020 0007352 272.4882 87.5492 14.87724069695347 STRAND 1 1 39090U 13009E 25174.74225621 .00000208 00000-0 84904-4 0 9991 2 39090 98.3826 359.0663 0007935 215.7495 144.3161 14.36827717645605 BRITE-A TUGSAT-1 1 39091U 13009F 25174.47416131 .00000143 00000-0 63484-4 0 9998 2 39091 98.3884 358.0569 0009313 226.6175 133.4237 14.36316540645556 BRITE-U UNIBRITE 1 39092U 13009G 25174.45434671 .00000145 00000-0 64464-4 0 9997 2 39092 98.3923 358.0580 0008296 221.8731 138.1822 14.36188124645498 AIST 2 1 39133U 13015D 25174.87546898 .00003532 00000-0 16603-3 0 9995 2 39133 64.8711 344.1649 0031314 278.4776 81.2803 15.20930529669753 NEE 01 PEGASUS 1 39151U 13018B 25174.81278245 .00001605 00000-0 16871-3 0 9996 2 39151 98.0751 303.9821 0012001 262.0496 97.9359 14.90894044657261 CUBEBUG 1 1 39153U 13018D 25174.83622299 .00001698 00000-0 16571-3 0 9991 2 39153 98.1208 315.7804 0011394 249.8593 110.1400 14.93816216657586 ESTCUBE 1 1 39161U 13021C 25173.59839610 .00001179 00000-0 16322-3 0 9991 2 39161 97.7799 234.7121 0010010 105.7728 254.4589 14.79776229651858 POPACS 1 1 39268U 13055D 25174.67865911 .00035861 -31678-6 30809-3 0 9992 2 39268 80.9707 69.5091 0230631 295.2624 62.4875 15.41955831618274 POPACS 2 1 39269U 13055E 25174.47749514 .00007121 00000-0 14049-3 0 9995 2 39269 80.9946 190.1069 0474098 253.3680 101.4983 14.76166916611249 POPACS 3 1 39270U 13055F 25174.65928041 .00007782 00000-0 19387-3 0 9994 2 39270 81.0051 255.5528 0583539 75.8045 290.7225 14.48278481607223 ZACUBE 1 39417U 13066B 25174.29139079 .00003863 00000-0 33641-3 0 9999 2 39417 97.7801 131.2317 0044191 8.9311 351.2686 14.96768040626962 WNISAT 1 1 39423U 13066H 25174.46470785 .00000421 00000-0 87359-4 0 9990 2 39423 97.6785 345.2831 0163968 281.7819 76.5029 14.57119523614479 TRITON 1 1 39427U 13066M 25174.81260612 .00001957 00000-0 25250-3 0 9995 2 39427 97.8366 88.2262 0093451 321.1318 38.3197 14.79148972621254 GOMX 1 1 39430U 13066Q 25174.87149647 .00001385 00000-0 22065-3 0 9995 2 39430 97.6822 32.6582 0133156 146.1564 214.8230 14.67685218617504 BRITE-PL 1 39431U 13066R 25174.33242789 .00000430 00000-0 95605-4 0 9999 2 39431 97.7562 308.3508 0193530 47.7199 314.0224 14.50615072611895 HUMSAT D 1 39433U 13066T 25174.44413179 .00021148 00000-0 60210-3 0 9998 2 39433 97.5008 170.5744 0012618 73.7097 286.5533 15.36057304631200 CUBEBUG 2 1 39440U 13066AA 25174.31046092 .00002172 00000-0 22285-3 0 9994 2 39440 97.8498 118.7762 0063090 133.7150 226.9318 14.90006155623482 NEE 02 KRYSAOR 1 39441U 13066AB 25174.47157027 .00001234 00000-0 14716-3 0 9991 2 39441 97.8562 112.6247 0069245 163.5360 196.8126 14.84408829622947 FUNCUBE 1 1 39444U 13066AE 25174.33322148 .00004026 00000-0 30246-3 0 9995 2 39444 97.7810 136.3026 0041588 342.8318 17.1497 15.02499631625657 UWE-3 1 39446U 13066AG 25174.34341224 .00003413 00000-0 32458-3 0 9990 2 39446 97.8243 125.1903 0054831 73.9892 286.7358 14.92992064623962 BRITE TORONTO 1 40020U 14033L 25174.78278210 .00000427 00000-0 73445-4 0 9991 2 40020 97.9276 306.6285 0079621 345.1727 14.7146 14.71647471589593 DUCHIFAT 1 1 40021U 14033M 25174.85884786 .00013822 00000-0 49202-3 0 9997 2 40021 98.0938 190.4415 0006705 262.3978 97.6498 15.29073339600501 NANOSAT C BR1 1 40024U 14033Q 25174.44343976 .00007487 00000-0 36509-3 0 9992 2 40024 98.0896 173.3330 0004471 11.5719 348.5615 15.18638522599312 QB50P1 1 40025U 14033R 25174.38661678 .00004804 00000-0 29425-3 0 9997 2 40025 98.0821 157.7480 0010683 18.3883 341.7729 15.10670580598729 POPSAT HIP 1 1 40028U 14033U 25174.79862074 .00003798 00000-0 24587-3 0 9993 2 40028 98.0840 159.2578 0006979 344.1033 15.9974 15.08808901599155 FLOCK 1C 4 1 40031U 14033X 25174.49361659 .00030339 00000-0 72725-3 0 9995 2 40031 98.0872 184.8678 0001886 263.0482 97.0548 15.41364016600206 QB50P2 1 40032U 14033Y 25174.70621272 .00003937 00000-0 25677-3 0 9998 2 40032 98.0435 146.8449 0007270 323.4583 36.6147 15.08506609599022 ANTELSAT 1 40034U 14033AA 25174.38021768 .00003030 00000-0 33547-3 0 9997 2 40034 97.7360 332.3573 0047134 160.6357 199.6664 14.87260452592419 PERSEUS M2 1 40037U 14033AD 25174.83832198 .00001404 00000-0 13786-3 0 9993 2 40037 97.9560 114.5712 0013471 51.6957 308.5471 14.93776810597759 PERSEUS M1 1 40039U 14033AF 25174.75768615 .00001481 00000-0 14514-3 0 9993 2 40039 97.9297 109.3970 0013236 50.8653 309.3740 14.93764775597608 POLYITAN 1 1 40042U 14033AJ 25174.73035394 .00008852 00000-0 42700-3 0 9993 2 40042 98.1019 166.0525 0008281 319.7367 40.3252 15.18932981599444 TIGRISAT 1 40043U 14033AK 25174.36633204 .00001697 00000-0 21051-3 0 9993 2 40043 97.7368 329.2044 0051720 169.3660 190.8660 14.83009710592406 LEMUR 1 1 40044U 14033AL 25174.42308263 .00001753 00000-0 21728-3 0 9999 2 40044 97.7412 328.8257 0050725 172.6497 187.5472 14.83033370592253 AEROCUBE 6A 1 40045U 14033AM 25174.41017766 .00004591 00000-0 44494-3 0 9992 2 40045 97.6928 342.3707 0044239 132.8399 227.6551 14.92438997593000 AEROCUBE 6B 1 40046U 14033AN 25174.39382903 .00004230 00000-0 39879-3 0 9999 2 40046 97.6904 341.5046 0042793 126.4955 234.0219 14.93625137593099 UKUBE 1 1 40074U 14037F 25174.85546594 .00005589 00000-0 39206-3 0 9995 2 40074 98.3929 138.4107 0000587 354.3139 5.8079 15.05639449594495 BRITE-PL 2 1 40119U 14049B 25174.56450606 .00001492 00000-0 15035-3 0 9997 2 40119 97.8915 279.8305 0013842 213.4745 146.5600 14.92613576587910 DEORBITSAIL 1 40719U 15032E 25174.56815084 .00004639 00000-0 40765-3 0 9995 2 40719 97.6426 33.8396 0010818 352.3956 7.7100 14.96999054537477 HORYU 4 1 41340U 16012D 25174.89234716 .00014678 00000-0 38410-3 0 9996 2 41340 30.9977 35.6470 0005927 214.0577 145.9689 15.37417386514998 ALSAT 1N 1 41789U 16059G 25174.79962126 .00000563 00000-0 10513-3 0 9998 2 41789 97.8042 189.3175 0024872 252.5639 107.2847 14.68391964467399 RAVAN 1 41849U 16067B 25174.83369193 .00009294 00000-0 31636-3 0 9993 2 41849 98.0431 25.0194 0009162 177.8628 182.2652 15.30633528472523 CELTEE 1 1 41850U 16067C 25174.50428318 .00003686 00000-0 20288-3 0 9994 2 41850 98.1055 11.9885 0002061 62.7680 297.3760 15.14742323471499 OPTICUBE 04 1 41851U 16067D 25174.49518063 .00001377 00000-0 95655-4 0 9996 2 41851 98.0925 3.0036 0015152 247.0588 112.9040 15.07311259471096 AEROCUBE 8D 1 41852U 16067E 25174.50261363 .00004640 00000-0 23342-3 0 9996 2 41852 98.1089 13.2330 0002669 300.3430 59.7537 15.17782546471548 AEROCUBE 8C 1 41853U 16067F 25174.77090654 .00004706 00000-0 23574-3 0 9999 2 41853 98.0934 11.2875 0005460 203.9530 156.1449 15.17913732471570 PROMETHEUS 2-1 1 41854U 16067G 25173.84908181 .00031762 00000-0 57665-3 0 9990 2 41854 98.0754 28.7577 0006407 188.0685 172.0462 15.49504965472469 PROMETHEUS 2-3 1 41855U 16067H 25174.31075223 .00032641 00000-0 59232-3 0 9995 2 41855 98.0695 28.4322 0005385 189.6015 170.5132 15.49519373472531 DSAT 1 42794U 17036AF 25174.55180773 .00005232 00000-0 29213-3 0 9990 2 42794 97.5142 152.1919 0091882 320.6966 38.7617 15.10384349436603 LEMUR 2 GREENBERG 1 42837U 17042N 25174.74365541 .00007000 00000-0 34137-3 0 9990 2 42837 97.3675 355.9180 0011560 180.4245 179.6981 15.18561577433772 LEMUR 2 ANDIS 1 42838U 17042P 25174.76500393 .00008197 00000-0 39006-3 0 9997 2 42838 97.3614 355.5616 0012113 186.2685 173.8401 15.19355664433775 LEMUR 2 MONSON 1 42839U 17042Q 25174.77100985 .00008513 00000-0 44127-3 0 9994 2 42839 97.3959 356.1200 0008906 165.6048 194.5440 15.16378406433659 LEMUR 2 FURIAUS 1 42840U 17042R 25174.45342407 .00006326 00000-0 32310-3 0 9999 2 42840 97.3669 354.6273 0008682 238.0832 121.9558 15.17006408433610 LEMUR 2 PETERG 1 42841U 17042S 25173.97923022 .00008328 00000-0 40298-3 0 9992 2 42841 97.3929 357.9272 0005730 154.1088 206.0434 15.18820498433664 LEMUR 2 DEMBITZ 1 42842U 17042T 25174.49413963 .00006439 00000-0 32522-3 0 9991 2 42842 97.3766 357.0266 0008548 188.3989 171.7103 15.17390440433734 LEMUR 2 ZACHARY 1 42845U 17042W 25174.47959814 .00011195 00000-0 44301-3 0 9995 2 42845 97.3718 0.7360 0004464 208.5369 151.5625 15.25608656434131